1500170401.11,48172,16.5,74018.0,-0.75,-1.51,-1.47,0,*6D
1500170402.32,48173,16.5,74016.5,-0.77,-1.59,-1.47,0,*66
1500170403.55,48174,16.56,74024.3,-0.75,-1.59,-1.47,0,*63
1500170404.79,48175,16.5,74028.5,-0.75,-1.51,-1.47,0,*6A
1500170406.03,48176,16.5,74016.8,-0.75,-1.51,-1.47,0,*69
1500170407.22,48177,16.5,74018.8,-0.77,-1.63,-1.51,0,*6C
1500170408.45,48178,16.5,74024.3,-0.75,-1.59,-1.47,0,*6F
1500170409.64,48179,16.5,74024.8,-0.77,-1.67,-1.55,0,*62
1500170410.82,48180,16.56,74026.5,-0.77,-1.63,-1.55,0,*60
1500170412.01,48181,16.5,74020.0,-0.77,-1.63,-1.55,0,*61
1500170413.19,48182,16.5,74020.0,-0.77,-1.63,-1.55,0,*62
1500170414.38,48183,16.5,74022.0,-0.77,-1.63,-1.55,0,*63
1500170415.56,48184,16.56,74026.5,-0.77,-1.55,-1.55,0,*61
1500170416.78,48185,16.5,74020.3,-0.75,-1.59,-1.51,0,*6A
1500170417.96,48186,16.5,74026.3,-0.77,-1.55,-1.55,0,*63
1500170419.15,48187,16.5,74026.5,-0.77,-1.55,-1.55,0,*62
1500170420.36,48188,16.56,74026.3,-0.77,-1.63,-1.47,0,*6B
1500170421.55,48189,16.5,74022.5,-0.77,-1.55,-1.51,0,*68
1500170422.74,48190,16.5,74020.3,-0.77,-1.55,-1.51,0,*60
1500170423.92,48191,16.56,74022.0,-0.77,-1.63,-1.51,0,*64
1500170425.16,48192,16.5,74014.8,-0.75,-1.59,-1.47,0,*6B
1500170426.35,48193,16.5,74016.0,-0.77,-1.63,-1.51,0,*66
1500170427.54,48194,16.5,74014.5,-0.77,-1.67,-1.63,0,*64
1500170428.75,48195,16.5,74014.3,-0.75,-1.63,-1.51,0,*62
1500170429.94,48196,16.56,74014.8,-0.77,-1.63,-1.63,0,*62
1500170431.15,48197,16.56,74020.0,-0.75,-1.59,-1.51,0,*69
1500170432.33,48198,16.56,74010.0,-0.77,-1.55,-1.55,0,*6C
1500170433.52,48199,16.56,74008.0,-0.77,-1.63,-1.63,0,*6D
1500170434.71,48200,16.5,74014.3,-0.77,-1.75,-1.63,0,*69
1500170435.9,48201,16.56,74020.3,-0.77,-1.67,-1.67,0,*6F
1500170437.09,48202,16.56,74020.8,-0.77,-1.67,-1.63,0,*68
1500170438.28,48203,16.5,74018.0,-0.77,-1.75,-1.55,0,*6F
1500170439.46,48204,16.5,74022.3,-0.77,-1.75,-1.55,0,*68
1500170440.65,48205,16.5,74016.3,-0.77,-1.63,-1.55,0,*6E
1500170441.83,48206,16.5,74016.3,-0.77,-1.63,-1.63,0,*68
1500170443.02,48207,16.5,74018.0,-0.77,-1.67,-1.63,0,*6D
1500170444.21,48208,16.5,74018.8,-0.77,-1.67,-1.55,0,*67
1500170445.4,48209,16.56,74020.5,-0.77,-1.63,-1.63,0,*67
1500170446.58,48210,16.5,74016.8,-0.77,-1.75,-1.63,0,*68
1500170447.8,48211,16.56,74012.3,-0.75,-1.71,-1.63,0,*6F
1500170449.02,48212,16.5,74014.8,-0.79,-1.67,-1.59,0,*6E
1500170450.23,48213,16.5,74012.3,-0.79,-1.63,-1.55,0,*67
1500170451.44,48214,16.5,74012.3,-0.79,-1.55,-1.51,0,*61
1500170452.66,48215,16.56,74014.0,-0.79,-1.55,-1.51,0,*60
1500170453.85,48216,16.5,74012.3,-0.77,-1.55,-1.51,0,*6D
1500170455.03,48217,16.5,74012.0,-0.77,-1.55,-1.51,0,*6C
1500170456.22,48218,16.5,74014.8,-0.77,-1.51,-1.51,0,*67
1500170457.43,48219,16.5,74012.8,-0.79,-1.51,-1.51,0,*68
1500170458.62,48220,16.5,74012.8,-0.77,-1.51,-1.51,0,*6C
1500170459.83,48221,16.5,74010.3,-0.79,-1.51,-1.51,0,*63
1500170461.04,48222,16.5,74008.5,-0.79,-1.55,-1.51,0,*64
1500170462.26,48223,16.56,74016.0,-0.79,-1.55,-1.51,0,*65
1500170463.47,48224,16.56,74014.8,-0.79,-1.55,-1.55,0,*66
1500170464.71,48225,16.56,74008.0,-0.79,-1.51,-1.47,0,*60
1500170465.95,48226,16.5,74010.0,-0.79,-1.55,-1.47,0,*67
1500170467.16,48227,16.5,74012.5,-0.79,-1.55,-1.51,0,*61
1500170468.4,48228,16.56,74014.0,-0.79,-1.51,-1.47,0,*6D
1500170469.59,48229,16.56,74014.5,-0.77,-1.51,-1.51,0,*65
1500170470.77,48230,16.5,74002.3,-0.77,-1.51,-1.51,0,*6D
1500170471.95,48231,16.5,74004.3,-0.77,-1.51,-1.51,0,*6C
1500170473.14,48232,16.5,74010.8,-0.77,-1.51,-1.51,0,*6F
1500170474.32,48233,16.56,74010.3,-0.77,-1.51,-1.51,0,*6E
1500170475.54,48234,16.56,74008.0,-0.77,-1.51,-1.47,0,*6E
1500170476.78,48235,16.56,74012.3,-0.77,-1.47,-1.47,0,*68
1500170477.99,48236,16.5,74012.0,-0.77,-1.51,-1.47,0,*6C
1500170479.26,48237,16.56,74008.5,-0.75,-1.47,-1.35,0,*6D
1500170480.5,48238,16.5,74002.3,-0.77,-1.47,-1.47,0,*65
1500170481.71,48239,16.5,74002.8,-0.77,-1.51,-1.47,0,*63
1500170482.96,48240,16.5,74000.8,-0.77,-1.47,-1.47,0,*6A
1500170484.17,48241,16.5,74002.5,-0.77,-1.51,-1.47,0,*6C
1500170485.35,48242,16.5,73996.8,-0.77,-1.51,-1.51,0,*68
1500170486.57,48243,16.56,74000.0,-0.77,-1.47,-1.51,0,*6E
1500170487.81,48244,16.5,74006.8,-0.77,-1.47,-1.47,0,*6E
1500170489.02,48245,16.5,74000.3,-0.77,-1.51,-1.47,0,*68
1500170490.23,48246,16.5,74002.8,-0.77,-1.51,-1.47,0,*6B
1500170491.42,48247,16.5,74002.3,-0.77,-1.51,-1.51,0,*6D
1500170492.6,48248,16.5,74006.5,-0.77,-1.51,-1.51,0,*62
1500170493.81,48249,16.5,74004.3,-0.77,-1.51,-1.47,0,*64
1500170495.0,48250,16.5,74004.5,-0.77,-1.51,-1.51,0,*6B
1500170496.21,48251,16.5,74004.3,-0.77,-1.51,-1.47,0,*6D
1500170497.39,48252,16.56,74008.5,-0.77,-1.51,-1.51,0,*69
1500170498.64,48253,16.5,74008.5,-0.77,-1.47,-1.47,0,*68
1500170499.91,48254,16.5,74018.0,-0.75,-1.47,-1.43,0,*69
1500170501.12,48255,16.5,74012.0,-0.77,-1.51,-1.47,0,*69
1500170502.39,48256,16.56,74008.5,-0.75,-1.47,-1.43,0,*6B
1500170503.65,48257,16.56,74002.8,-0.75,-1.43,-1.35,0,*6F
1500170504.92,48258,16.5,74028.8,-0.75,-1.47,-1.43,0,*65
1500170506.16,48259,16.56,74016.3,-0.75,-1.51,-1.47,0,*67
1500170507.35,48260,16.5,74010.0,-0.77,-1.55,-1.55,0,*68
1500170508.53,48261,16.5,74006.8,-0.77,-1.63,-1.55,0,*6C
1500170509.8,48262,16.5,74000.8,-0.75,-1.47,-1.43,0,*6C
1500170510.99,48263,16.5,73996.3,-0.77,-1.51,-1.51,0,*6B
1500170512.26,48264,16.5,74006.0,-0.75,-1.47,-1.47,0,*6E
1500170513.47,48265,16.5,74008.0,-0.77,-1.51,-1.47,0,*6A
1500170514.7,48266,16.5,74006.5,-0.75,-1.59,-1.43,0,*67
1500170515.94,48267,16.5,74008.8,-0.75,-1.51,-1.43,0,*6E
1500170517.18,48268,16.5,74006.5,-0.75,-1.51,-1.43,0,*61
1500170518.42,48269,16.5,74002.0,-0.77,-1.47,-1.47,0,*61
1500170519.69,48270,16.5,74004.8,-0.75,-1.47,-1.43,0,*6F
1500170520.93,48271,16.5,74004.5,-0.77,-1.43,-1.39,0,*65
1500170522.17,48272,16.5,74010.5,-0.77,-1.47,-1.47,0,*6B
1500170523.44,48273,16.5,74008.3,-0.75,-1.47,-1.47,0,*68
1500170524.71,48274,16.5,74006.0,-0.75,-1.43,-1.43,0,*6F
1500170525.98,48275,16.56,74010.8,-0.75,-1.43,-1.35,0,*6F
1500170527.25,48276,16.5,74014.5,-0.75,-1.47,-1.35,0,*68
1500170528.52,48277,16.5,74020.5,-0.75,-1.47,-1.43,0,*68
1500170529.79,48278,16.5,74014.8,-0.75,-1.43,-1.35,0,*62
1500170531.03,48279,16.5,74010.0,-0.75,-1.43,-1.33,0,*65
1500170532.3,48280,16.5,74014.8,-0.75,-1.43,-1.43,0,*64
1500170533.57,48281,16.5,74008.0,-0.75,-1.43,-1.35,0,*64
1500170534.84,48282,16.5,74004.8,-0.75,-1.47,-1.35,0,*63
1500170536.11,48283,16.5,74012.8,-0.75,-1.47,-1.47,0,*67
1500170537.37,48284,16.56,74024.5,-0.75,-1.47,-1.43,0,*64
1500170538.64,48285,16.5,74018.5,-0.75,-1.47,-1.43,0,*65
1500170539.88,48286,16.5,74006.5,-0.73,-1.47,-1.47,0,*64
1500170541.12,48287,16.5,74014.5,-0.73,-1.47,-1.47,0,*65
1500170542.36,48288,16.5,74008.3,-0.73,-1.47,-1.43,0,*6E
1500170543.6,48289,16.5,74004.5,-0.73,-1.47,-1.43,0,*6F
1500170544.84,48290,16.5,74004.5,-0.73,-1.47,-1.47,0,*63
1500170546.05,48291,16.5,74010.8,-0.73,-1.51,-1.43,0,*61
1500170547.29,48292,16.5,74012.8,-0.75,-1.51,-1.43,0,*64
1500170548.52,48293,16.5,74014.8,-0.75,-1.51,-1.43,0,*65
1500170549.76,48294,16.5,74004.8,-0.75,-1.51,-1.47,0,*66
1500170551.0,48295,16.5,74006.8,-0.73,-1.47,-1.47,0,*66
1500170552.24,48296,16.5,74018.0,-0.73,-1.47,-1.43,0,*61
1500170553.51,48297,16.5,74018.5,-0.71,-1.43,-1.43,0,*66
1500170554.71,48298,16.5,74026.0,-0.73,-1.51,-1.47,0,*6C
1500170555.92,48299,16.5,74008.8,-0.73,-1.51,-1.43,0,*69
1500170557.16,48300,16.5,74022.5,-0.73,-1.47,-1.43,0,*6F
1500170558.4,48301,16.5,74014.0,-0.73,-1.47,-1.47,0,*6A
1500170559.64,48302,16.5,74008.8,-0.73,-1.43,-1.47,0,*6D
1500170560.88,48303,16.5,74020.3,-0.73,-1.47,-1.43,0,*6C
1500170562.15,48304,16.5,74022.0,-0.71,-1.43,-1.43,0,*6D
1500170563.41,48305,16.5,74028.8,-0.71,-1.43,-1.39,0,*61
1500170564.65,48306,16.5,74014.3,-0.73,-1.47,-1.43,0,*69
1500170565.92,48307,16.5,74018.8,-0.71,-1.43,-1.43,0,*6E
1500170567.16,48308,16.5,74016.0,-0.73,-1.47,-1.43,0,*67
1500170568.4,48309,16.5,74026.3,-0.73,-1.43,-1.43,0,*62
1500170569.64,48310,16.5,74024.8,-0.73,-1.47,-1.43,0,*6E
1500170570.88,48311,16.5,74026.8,-0.73,-1.47,-1.47,0,*6B
1500170572.12,48312,16.5,74022.0,-0.73,-1.47,-1.47,0,*68
1500170573.36,48313,16.5,74016.8,-0.73,-1.47,-1.47,0,*69
1500170574.6,48314,16.56,74026.0,-0.73,-1.47,-1.47,0,*6E
1500170575.84,48315,16.5,74018.8,-0.73,-1.47,-1.43,0,*6B
1500170577.08,48316,16.5,74024.8,-0.73,-1.43,-1.43,0,*6C
1500170578.35,48317,16.5,74024.0,-0.75,-1.47,-1.43,0,*6F
1500170579.62,48318,16.5,74022.8,-0.71,-1.39,-1.39,0,*60
1500170580.85,48319,16.5,74024.0,-0.73,-1.47,-1.43,0,*67
1500170582.12,48320,16.5,74020.5,-0.71,-1.43,-1.43,0,*6B
1500170583.36,48321,16.5,74022.8,-0.73,-1.47,-1.43,0,*6C
1500170584.63,48322,16.56,74022.0,-0.71,-1.43,-1.43,0,*69
1500170585.86,48323,16.5,74022.0,-0.73,-1.47,-1.43,0,*6E
1500170587.1,48324,16.5,74014.5,-0.73,-1.43,-1.43,0,*6D
1500170588.37,48325,16.5,74026.5,-0.71,-1.43,-1.43,0,*6E
1500170589.61,48326,16.5,74030.8,-0.73,-1.47,-1.43,0,*6B
1500170590.88,48327,16.5,74030.3,-0.71,-1.43,-1.39,0,*61
1500170592.12,48328,16.5,74024.0,-0.73,-1.47,-1.43,0,*65
1500170593.36,48329,16.5,74022.3,-0.73,-1.47,-1.47,0,*60
1500170594.62,48330,16.5,74020.8,-0.71,-1.43,-1.43,0,*6A
1500170595.83,48331,16.5,74018.3,-0.73,-1.51,-1.47,0,*6E
1500170597.04,48332,16.5,74028.5,-0.73,-1.51,-1.43,0,*69
1500170598.27,48333,16.5,74028.8,-0.71,-1.55,-1.39,0,*63
1500170599.51,48334,16.5,74016.0,-0.71,-1.55,-1.47,0,*6D
1500170600.75,48335,16.5,74016.0,-0.71,-1.55,-1.47,0,*6C
1500170601.99,48336,16.5,74012.5,-0.71,-1.55,-1.47,0,*6F
1500170603.2,48337,16.5,74022.0,-0.73,-1.51,-1.47,0,*68
1500170604.46,48338,16.5,74024.8,-0.71,-1.47,-1.43,0,*66
1500170605.73,48339,16.5,74026.3,-0.71,-1.47,-1.39,0,*6A
1500170606.99,48340,16.5,74024.3,-0.71,-1.47,-1.47,0,*6D
1500170608.2,48341,16.5,74026.0,-0.73,-1.59,-1.47,0,*61
1500170609.41,48342,16.5,74024.0,-0.73,-1.51,-1.47,0,*6A
1500170610.62,48343,16.5,74034.5,-0.73,-1.51,-1.47,0,*6B
1500170611.83,48344,16.5,74030.0,-0.73,-1.51,-1.43,0,*68
1500170613.07,48345,16.5,74038.5,-0.73,-1.47,-1.47,0,*6A
1500170614.27,48346,16.5,74030.0,-0.73,-1.59,-1.47,0,*66
1500170615.51,48347,16.5,74028.0,-0.71,-1.55,-1.39,0,*60
1500170616.78,48348,16.5,74024.0,-0.71,-1.47,-1.43,0,*61
1500170617.98,48349,16.5,74034.3,-0.73,-1.51,-1.47,0,*61
1500170619.25,48350,16.5,74030.5,-0.71,-1.47,-1.43,0,*68
1500170620.52,48351,16.5,74032.0,-0.71,-1.47,-1.43,0,*69
1500170621.78,48352,16.5,74022.8,-0.71,-1.47,-1.47,0,*6E
1500170623.05,48353,16.5,74022.8,-0.71,-1.47,-1.43,0,*6B
1500170624.26,48354,16.5,74024.8,-0.73,-1.55,-1.39,0,*60
1500170625.5,48355,16.5,74026.8,-0.71,-1.55,-1.43,0,*6E
1500170626.71,48356,16.5,74026.0,-0.73,-1.51,-1.47,0,*6F
1500170627.97,48357,16.5,74024.0,-0.71,-1.47,-1.43,0,*6F
1500170629.18,48358,16.5,74026.8,-0.73,-1.51,-1.47,0,*61
1500170630.39,48359,16.5,74022.0,-0.73,-1.51,-1.47,0,*60
1500170631.66,48360,16.5,74024.3,-0.71,-1.47,-1.39,0,*66
1500170632.86,48361,16.5,74030.5,-0.73,-1.51,-1.43,0,*6F
1500170634.07,48362,16.5,74018.3,-0.73,-1.51,-1.47,0,*68
1500170635.28,48363,16.5,74022.8,-0.73,-1.51,-1.43,0,*6D
1500170636.49,48364,16.5,74024.8,-0.73,-1.51,-1.47,0,*6E
1500170637.7,48365,16.5,74026.8,-0.73,-1.51,-1.47,0,*6F
1500170638.9,48366,16.5,74016.8,-0.73,-1.51,-1.43,0,*68
1500170640.17,48367,16.5,74014.8,-0.71,-1.47,-1.43,0,*6C
1500170641.38,48368,16.5,74022.3,-0.73,-1.51,-1.47,0,*62
1500170642.62,48369,16.5,74026.5,-0.73,-1.47,-1.43,0,*60
1500170643.88,48370,16.5,74018.5,-0.71,-1.47,-1.43,0,*6A
1500170645.09,48371,16.5,74016.5,-0.73,-1.59,-1.47,0,*62
1500170646.3,48372,16.5,74018.5,-0.71,-1.59,-1.55,0,*60
1500170647.5,48373,16.5,74020.0,-0.71,-1.59,-1.55,0,*61
1500170648.68,48374,16.5,74016.0,-0.73,-1.59,-1.51,0,*60
1500170649.86,48375,16.5,74018.0,-0.73,-1.59,-1.51,0,*61
1500170651.13,48376,16.5,74020.8,-0.71,-1.47,-1.47,0,*68
1500170652.4,48377,16.5,74030.8,-0.71,-1.47,-1.43,0,*6D
1500170653.6,48378,16.5,74024.5,-0.73,-1.51,-1.47,0,*63
1500170654.81,48379,16.5,74018.5,-0.73,-1.51,-1.47,0,*62
1500170656.02,48380,16.5,74020.3,-0.73,-1.51,-1.47,0,*64
1500170657.23,48381,16.5,74020.8,-0.73,-1.55,-1.43,0,*65
1500170658.5,48382,16.5,74022.0,-0.71,-1.47,-1.43,0,*67
1500170659.7,48383,16.5,74024.3,-0.73,-1.59,-1.47,0,*6F
1500170660.97,48384,16.5,74030.3,-0.71,-1.47,-1.47,0,*65
1500170662.18,48385,16.5,74032.0,-0.73,-1.59,-1.43,0,*6D
1500170663.38,48386,16.5,74032.8,-0.73,-1.59,-1.47,0,*6A
1500170664.59,48387,16.5,74030.5,-0.73,-1.59,-1.47,0,*6B
1500170665.83,48388,16.5,74034.8,-0.73,-1.47,-1.39,0,*62
1500170667.04,48389,16.5,74038.5,-0.73,-1.51,-1.47,0,*6D
1500170668.25,48390,16.5,74034.3,-0.73,-1.51,-1.47,0,*65
1500170669.52,48391,16.5,74026.8,-0.71,-1.47,-1.39,0,*68
1500170670.78,48392,16.5,74032.3,-0.71,-1.47,-1.39,0,*6B
1500170672.02,48393,16.5,74024.0,-0.71,-1.55,-1.43,0,*64
1500170673.23,48394,16.5,74020.3,-0.73,-1.59,-1.43,0,*6D
1500170674.44,48395,16.5,74020.0,-0.73,-1.51,-1.47,0,*60
1500170675.7,48396,16.5,74020.3,-0.71,-1.43,-1.39,0,*6B
1500170676.97,48397,16.5,74018.3,-0.71,-1.43,-1.43,0,*67
1500170678.23,48398,16.5,74016.8,-0.71,-1.47,-1.43,0,*6C
1500170679.5,48399,16.5,74026.3,-0.71,-1.47,-1.43,0,*6D
1500170680.71,48400,16.5,74038.0,-0.73,-1.51,-1.47,0,*6B
1500170681.97,48401,16.5,74042.0,-0.71,-1.47,-1.43,0,*6B
1500170683.21,48402,16.5,74024.5,-0.71,-1.55,-1.43,0,*6B
1500170684.48,48403,16.5,74022.0,-0.71,-1.47,-1.47,0,*6D
1500170685.68,48404,16.5,74018.3,-0.73,-1.51,-1.47,0,*6F
1500170686.89,48405,16.5,74022.5,-0.73,-1.51,-1.47,0,*6E
1500170688.16,48406,16.5,74022.3,-0.71,-1.47,-1.43,0,*6C
1500170689.42,48407,16.5,74016.5,-0.71,-1.47,-1.43,0,*6D
1500170690.69,48408,16.5,74022.5,-0.71,-1.47,-1.47,0,*66
1500170691.96,48409,16.56,74024.0,-0.71,-1.47,-1.39,0,*6E
1500170693.2,48410,16.5,74024.0,-0.73,-1.47,-1.43,0,*69
1500170694.46,48411,16.5,74024.0,-0.71,-1.43,-1.43,0,*6E
1500170695.73,48412,16.5,74026.5,-0.71,-1.39,-1.43,0,*60
1500170697.0,48413,16.5,74024.8,-0.71,-1.43,-1.43,0,*6C
1500170698.26,48414,16.5,74020.5,-0.71,-1.43,-1.39,0,*66
1500170699.53,48415,16.5,74024.5,-0.71,-1.43,-1.39,0,*67
1500170700.8,48416,16.5,74024.5,-0.71,-1.43,-1.43,0,*69
1500170702.06,48417,16.5,74018.8,-0.71,-1.43,-1.43,0,*68
1500170703.3,48418,16.5,74030.0,-0.71,-1.55,-1.43,0,*60
1500170704.57,48419,16.5,74030.0,-0.71,-1.47,-1.39,0,*6F
1500170705.83,48420,16.5,74030.0,-0.71,-1.47,-1.43,0,*68
1500170707.1,48421,16.5,74026.0,-0.71,-1.47,-1.43,0,*69
1500170708.36,48422,16.5,74028.5,-0.71,-1.47,-1.43,0,*6A
1500170709.63,48423,16.5,74020.0,-0.71,-1.43,-1.39,0,*62
1500170710.9,48424,16.5,74028.0,-0.71,-1.43,-1.43,0,*68
1500170712.16,48425,16.56,74030.0,-0.71,-1.43,-1.43,0,*69
1500170713.43,48426,16.56,74028.0,-0.71,-1.43,-1.43,0,*6A
1500170714.66,48427,16.5,74026.5,-0.71,-1.55,-1.43,0,*6C
1500170715.9,48428,16.5,74030.3,-0.71,-1.55,-1.43,0,*63
1500170717.17,48429,16.5,74030.8,-0.71,-1.47,-1.47,0,*65
1500170718.4,48430,16.5,74026.5,-0.71,-1.55,-1.43,0,*6A
1500170719.64,48431,16.5,74026.0,-0.71,-1.55,-1.43,0,*6B
1500170720.88,48432,16.5,74020.8,-0.71,-1.55,-1.43,0,*68
1500170722.09,48433,16.5,74024.0,-0.73,-1.51,-1.47,0,*6B
1500170723.35,48434,16.5,74024.8,-0.71,-1.43,-1.43,0,*69
1500170724.62,48435,16.5,74026.3,-0.71,-1.47,-1.43,0,*6C
1500170725.85,48436,16.5,74024.5,-0.71,-1.59,-1.47,0,*64
1500170727.03,48437,16.5,74028.8,-0.73,-1.51,-1.51,0,*68
1500170728.27,48438,16.56,74028.0,-0.71,-1.55,-1.47,0,*66
1500170729.54,48439,16.5,74022.3,-0.71,-1.47,-1.47,0,*64
1500170730.72,48440,16.5,74024.0,-0.73,-1.59,-1.51,0,*60
1500170731.93,48441,16.5,74030.0,-0.71,-1.55,-1.55,0,*6B
1500170733.2,48442,16.5,74024.5,-0.71,-1.47,-1.47,0,*68
1500170734.46,48443,16.5,74010.8,-0.71,-1.47,-1.47,0,*69
1500170735.7,48444,16.5,74014.0,-0.71,-1.55,-1.43,0,*69
1500170736.91,48445,16.5,74012.5,-0.73,-1.51,-1.47,0,*6A
1500170738.17,48446,16.5,74008.0,-0.71,-1.47,-1.43,0,*68
1500170739.38,48447,16.5,74008.5,-0.73,-1.51,-1.47,0,*68
1500170740.65,48448,16.5,74020.0,-0.71,-1.47,-1.43,0,*66
1500170741.91,48449,16.5,74022.5,-0.71,-1.47,-1.39,0,*6A
1500170743.15,48450,16.5,74012.0,-0.73,-1.47,-1.47,0,*69
1500170744.36,48451,16.5,74006.0,-0.71,-1.55,-1.55,0,*6A
1500170745.6,48452,16.5,74012.0,-0.71,-1.59,-1.47,0,*66
1500170746.83,48453,16.5,74014.3,-0.71,-1.59,-1.47,0,*67
1500170748.07,48454,16.5,74016.8,-0.71,-1.55,-1.47,0,*6C
1500170749.28,48455,16.5,74022.0,-0.71,-1.55,-1.55,0,*6E
1500170750.54,48456,16.5,74022.3,-0.71,-1.47,-1.47,0,*6D
1500170751.78,48457,16.5,74018.0,-0.71,-1.55,-1.43,0,*6B
1500170752.99,48458,16.5,74020.5,-0.73,-1.51,-1.47,0,*66
1500170754.25,48459,16.5,74018.0,-0.71,-1.47,-1.47,0,*62
1500170755.49,48460,16.5,74016.5,-0.71,-1.55,-1.43,0,*6F
1500170756.76,48461,16.5,74016.8,-0.71,-1.47,-1.39,0,*60
1500170757.94,48462,16.5,74010.5,-0.73,-1.51,-1.51,0,*68
1500170759.18,48463,16.5,74012.3,-0.71,-1.55,-1.47,0,*68
1500170760.44,48464,16.5,74020.5,-0.71,-1.47,-1.47,0,*6C
1500170761.71,48465,16.5,74026.8,-0.71,-1.47,-1.43,0,*69
1500170762.98,48466,16.5,74032.8,-0.71,-1.47,-1.47,0,*6E
1500170764.24,48467,16.5,74028.0,-0.71,-1.47,-1.43,0,*6B
1500170765.48,48468,16.5,74024.5,-0.71,-1.55,-1.47,0,*63
1500170766.75,48469,16.5,74020.8,-0.71,-1.47,-1.47,0,*61
1500170767.98,48470,16.5,74020.0,-0.71,-1.55,-1.47,0,*6A
1500170769.17,48471,16.5,74014.5,-0.73,-1.63,-1.51,0,*6B
1500170770.38,48472,16.5,74018.5,-0.71,-1.55,-1.55,0,*6B
1500170771.56,48473,16.5,74022.0,-0.73,-1.63,-1.51,0,*69
1500170772.75,48474,16.5,74018.0,-0.73,-1.63,-1.51,0,*6E
1500170773.93,48475,16.5,74020.5,-0.73,-1.71,-1.59,0,*64
1500170775.17,48476,16.5,74024.3,-0.71,-1.59,-1.47,0,*60
1500170776.35,48477,16.5,74018.3,-0.73,-1.63,-1.51,0,*6D
1500170777.59,48478,16.5,74020.8,-0.71,-1.59,-1.47,0,*6E
1500170778.77,48479,16.5,74024.0,-0.73,-1.63,-1.51,0,*63
1500170779.96,48480,16.5,74026.3,-0.73,-1.71,-1.59,0,*6E
1500170781.15,48481,16.5,74026.3,-0.73,-1.71,-1.59,0,*6F
1500170782.39,48482,16.5,74020.3,-0.71,-1.67,-1.47,0,*66
1500170783.62,48483,16.5,74022.0,-0.71,-1.59,-1.47,0,*6A
1500170784.86,48484,16.5,74020.0,-0.71,-1.55,-1.47,0,*61
1500170786.05,48485,16.5,74022.5,-0.73,-1.71,-1.59,0,*6B
1500170787.24,48486,16.5,74020.3,-0.73,-1.71,-1.51,0,*60
1500170788.42,48487,16.5,74020.8,-0.73,-1.63,-1.51,0,*62
1500170789.61,48488,16.5,74028.3,-0.73,-1.71,-1.59,0,*66
1500170790.79,48489,16.5,74020.3,-0.73,-1.63,-1.59,0,*64
1500170791.98,48490,16.5,74024.0,-0.73,-1.63,-1.51,0,*64
1500170793.16,48491,16.5,74026.3,-0.73,-1.71,-1.59,0,*6E
1500170794.37,48492,16.5,74022.8,-0.71,-1.59,-1.55,0,*69
1500170795.61,48493,16.5,74020.8,-0.71,-1.55,-1.47,0,*67
1500170796.81,48494,16.5,74024.3,-0.73,-1.59,-1.47,0,*6E
1500170798.0,48495,16.5,74030.8,-0.73,-1.51,-1.51,0,*60
1500170799.18,48496,16.5,74030.5,-0.73,-1.51,-1.51,0,*63
1500170800.39,48497,16.5,74036.0,-0.73,-1.51,-1.47,0,*65
1500170801.65,48498,16.56,74038.3,-0.71,-1.47,-1.43,0,*6B
1500170802.84,48499,16.5,74032.0,-0.73,-1.67,-1.55,0,*6D
1500170804.02,48500,16.56,74034.3,-0.73,-1.63,-1.51,0,*6C
1500170805.2,48501,16.5,74030.5,-0.73,-1.59,-1.55,0,*60
1500170806.41,48502,16.5,74034.5,-0.71,-1.59,-1.51,0,*65
1500170807.61,48503,16.5,74032.3,-0.73,-1.59,-1.47,0,*61
1500170808.8,48504,16.5,74034.5,-0.73,-1.59,-1.51,0,*61
1500170809.98,48505,16.5,74032.5,-0.73,-1.63,-1.59,0,*61
1500170811.16,48506,16.5,74030.0,-0.73,-1.63,-1.51,0,*6A
1500170812.4,48507,16.5,74024.5,-0.71,-1.55,-1.47,0,*6B
1500170813.58,48508,16.5,74024.3,-0.73,-1.51,-1.51,0,*65
1500170814.79,48509,16.5,74020.3,-0.73,-1.59,-1.47,0,*6B
1500170816.03,48510,16.5,74020.0,-0.71,-1.55,-1.43,0,*69
1500170817.26,48511,16.5,74018.5,-0.71,-1.55,-1.47,0,*6C
1500170818.45,48512,16.5,74020.3,-0.73,-1.51,-1.51,0,*6E
1500170819.68,48513,16.5,74020.3,-0.71,-1.55,-1.43,0,*6A
1500170820.89,48514,16.5,74026.0,-0.73,-1.59,-1.47,0,*67
1500170822.11,48515,16.5,74020.3,-0.73,-1.83,-1.71,0,*64
1500170823.3,48516,16.5,74016.0,-0.73,-1.75,-1.71,0,*6E
1500170824.48,48517,16.5,74012.3,-0.73,-1.75,-1.63,0,*6C
1500170825.69,48518,16.5,74012.0,-0.71,-1.67,-1.55,0,*67
1500170826.87,48519,16.5,74014.8,-0.73,-1.63,-1.59,0,*6C
1500170828.06,48520,16.5,74026.3,-0.73,-1.71,-1.51,0,*6D
1500170829.27,48521,16.5,74024.0,-0.75,-1.59,-1.59,0,*68
1500170830.45,48522,16.5,74018.3,-0.73,-1.63,-1.59,0,*64
1500170831.63,48523,16.5,74012.8,-0.73,-1.63,-1.59,0,*65
1500170832.82,48524,16.5,74018.0,-0.73,-1.63,-1.59,0,*62
1500170834.0,48525,16.5,74020.3,-0.73,-1.63,-1.51,0,*6B
1500170835.18,48526,16.5,74022.5,-0.73,-1.59,-1.51,0,*61
1500170836.36,48527,16.5,74020.3,-0.73,-1.59,-1.51,0,*60
1500170837.55,48528,16.5,74024.8,-0.73,-1.51,-1.51,0,*67
1500170838.72,48529,16.5,74026.5,-0.73,-1.51,-1.59,0,*6E
1500170839.9,48530,16.5,74032.3,-0.73,-1.51,-1.51,0,*6E
1500170841.11,48531,16.5,74020.0,-0.73,-1.51,-1.47,0,*68
1500170842.32,48532,16.5,74022.0,-0.73,-1.51,-1.47,0,*6B
1500170843.53,48533,16.5,74020.8,-0.73,-1.59,-1.47,0,*62
1500170844.74,48534,16.5,74020.3,-0.73,-1.51,-1.47,0,*6D
1500170845.97,48535,16.5,74030.3,-0.75,-1.51,-1.47,0,*6A
1500170847.18,48536,16.5,74020.0,-0.73,-1.51,-1.47,0,*6F
1500170848.39,48537,16.5,74028.5,-0.73,-1.51,-1.47,0,*6E
1500170849.6,48538,16.5,74034.8,-0.73,-1.51,-1.43,0,*65
1500170850.84,48539,16.5,74032.3,-0.73,-1.47,-1.47,0,*67
1500170852.08,48540,16.5,74020.5,-0.73,-1.47,-1.47,0,*69
1500170853.32,48541,16.5,74022.0,-0.73,-1.47,-1.47,0,*68
1500170854.58,48542,16.5,74028.8,-0.71,-1.43,-1.43,0,*69
1500170855.82,48543,16.5,74032.3,-0.73,-1.47,-1.43,0,*6E
1500170857.06,48544,16.5,74034.3,-0.73,-1.47,-1.47,0,*6D
1500170858.3,48545,16.5,74036.3,-0.73,-1.47,-1.47,0,*6C
1500170859.54,48546,16.56,74036.0,-0.73,-1.47,-1.47,0,*6F
1500170860.78,48547,16.56,74040.0,-0.73,-1.47,-1.35,0,*6B
1500170862.02,48548,16.5,74036.3,-0.73,-1.43,-1.43,0,*61
1500170863.26,48549,16.5,74034.5,-0.73,-1.43,-1.43,0,*60
1500170864.5,48550,16.5,74038.8,-0.73,-1.47,-1.47,0,*68
1500170865.74,48551,16.5,74034.3,-0.71,-1.39,-1.33,0,*61
1500170866.98,48552,16.5,74036.0,-0.73,-1.43,-1.35,0,*6B
1500170868.22,48553,16.5,74032.8,-0.73,-1.47,-1.43,0,*6F
1500170869.46,48554,16.5,74036.3,-0.73,-1.43,-1.43,0,*6C
1500170870.7,48555,16.5,74038.5,-0.71,-1.43,-1.33,0,*68
1500170871.94,48556,16.5,74036.3,-0.71,-1.39,-1.33,0,*66
1500170873.18,48557,16.5,74036.8,-0.71,-1.39,-1.33,0,*67
1500170874.39,48558,16.5,74040.8,-0.71,-1.33,-1.29,0,*69
1500170875.63,48559,16.5,74040.5,-0.71,-1.39,-1.33,0,*69
1500170876.87,48560,16.5,74040.0,-0.71,-1.43,-1.33,0,*6E
1500170878.13,48561,16.5,74028.3,-0.71,-1.43,-1.43,0,*68
1500170879.4,48562,16.5,74022.8,-0.71,-1.43,-1.39,0,*66
1500170880.67,48563,16.5,74016.0,-0.71,-1.43,-1.39,0,*67
1500170881.91,48564,16.5,74032.3,-0.73,-1.47,-1.47,0,*6F
1500170883.12,48565,16.5,74026.5,-0.71,-1.55,-1.55,0,*6C
1500170884.38,48566,16.5,74026.0,-0.71,-1.47,-1.43,0,*6B
1500170885.65,48567,16.5,74028.8,-0.71,-1.47,-1.43,0,*6A
1500170886.91,48568,16.5,74028.3,-0.71,-1.47,-1.43,0,*65
1500170888.18,48569,16.5,74022.8,-0.71,-1.47,-1.43,0,*64
1500170889.45,48570,16.56,74028.3,-0.71,-1.47,-1.43,0,*6C
1500170890.71,48571,16.5,74024.8,-0.71,-1.47,-1.43,0,*6D
1500170891.98,48572,16.5,74030.8,-0.71,-1.47,-1.43,0,*6E
1500170893.24,48573,16.5,74030.0,-0.71,-1.47,-1.43,0,*6F
1500170894.51,48574,16.5,74030.8,-0.71,-1.39,-1.43,0,*61
1500170895.78,48575,16.5,74032.5,-0.71,-1.47,-1.43,0,*69
1500170897.05,48576,16.5,74032.5,-0.71,-1.47,-1.43,0,*6A
1500170898.31,48577,16.5,74034.8,-0.71,-1.47,-1.43,0,*6B
1500170899.58,48578,16.5,74034.8,-0.71,-1.43,-1.39,0,*6D
1500170900.84,48579,16.5,74036.3,-0.71,-1.43,-1.39,0,*6C
1500170902.11,48580,16.5,74036.8,-0.71,-1.43,-1.39,0,*6A
1500170903.38,48581,16.5,74038.0,-0.71,-1.43,-1.43,0,*66
1500170904.64,48582,16.5,74036.3,-0.71,-1.47,-1.43,0,*61
1500170905.91,48583,16.5,74038.0,-0.71,-1.47,-1.43,0,*60
1500170907.17,48584,16.5,74036.0,-0.71,-1.43,-1.39,0,*6E
1500170908.44,48585,16.5,74032.8,-0.71,-1.43,-1.43,0,*62
1500170909.68,48586,16.5,74034.3,-0.69,-1.43,-1.43,0,*68
1500170910.95,48587,16.5,74030.5,-0.71,-1.43,-1.43,0,*60
1500170912.19,48588,16.5,74030.5,-0.69,-1.39,-1.39,0,*66
1500170913.44,48589,16.5,74036.0,-0.69,-1.43,-1.43,0,*67
1500170914.68,48590,16.5,74050.3,-0.69,-1.43,-1.43,0,*6F
1500170915.92,48591,16.5,74044.0,-0.69,-1.43,-1.39,0,*63
1500170917.16,48592,16.5,74044.5,-0.69,-1.43,-1.39,0,*60